TimeGMT,TemperatureF,Dew PointF,Humidity,Sea Level PressureIn,VisibilityMPH,Wind Direction,Wind SpeedMPH,Gust SpeedMPH,PrecipitationIn,Events,Conditions,WindDirDegrees,DateUTC
12:50 AM,35.6,30.2,81,30.01,6.2,NW,10.4,-,N/A,,Scattered Clouds,320,2012-11-29 00:50:00
1:50 AM,35.6,30.2,81,30.01,6.2,NNW,10.4,-,N/A,,Partly Cloudy,330,2012-11-29 01:50:00
2:50 AM,34,30,78,30.01,16,NW,10.4,,,,,310,2012-11-29 02:50:00
2:50 AM,33.8,30.2,87,29.98,6.2,NW,10.4,-,N/A,,Unknown,310,2012-11-29 02:50:00
3:50 AM,33.8,28.4,81,29.98,6.2,NW,8.1,-,N/A,,Unknown,320,2012-11-29 03:50:00
4:50 AM,33.8,30.2,87,29.95,6.2,NW,10.4,-,N/A,,Unknown,320,2012-11-29 04:50:00
5:50 AM,34,29,76,29.98,31,NNW,9.2,,,,Scattered Clouds,330,2012-11-29 05:50:00
5:50 AM,33.8,30.2,87,29.95,6.2,NNW,9.2,-,N/A,,Partly Cloudy,330,2012-11-29 05:50:00
6:50 AM,32.0,28.4,87,29.95,6.2,West,5.8,-,N/A,,Mostly Cloudy,280,2012-11-29 06:50:00
7:50 AM,33.8,28.4,81,29.95,6.2,WNW,3.5,-,N/A,,Scattered Clouds,290,2012-11-29 07:50:00
8:50 AM,33,28,75,29.98,31,NW,5.8,,,,Scattered Clouds,310,2012-11-29 08:50:00
8:50 AM,32.0,28.4,87,29.95,6.2,NW,5.8,-,N/A,,Partly Cloudy,310,2012-11-29 08:50:00
9:50 AM,35.6,28.4,75,29.95,6.2,WNW,8.1,-,N/A,,Partly Cloudy,290,2012-11-29 09:50:00
10:50 AM,39.2,32.0,75,29.95,6.2,NW,6.9,-,N/A,,Partly Cloudy,310,2012-11-29 10:50:00
11:50 AM,41,32,59,29.94,47,NNW,8.1,,,,Scattered Clouds,340,2012-11-29 11:50:00
11:50 AM,41.0,32.0,70,29.92,6.2,NNW,8.1,-,N/A,,Partly Cloudy,340,2012-11-29 11:50:00
12:50 PM,41.0,32.0,70,29.89,6.2,NNW,8.1,-,N/A,,Partly Cloudy,340,2012-11-29 12:50:00
1:50 PM,41.0,33.8,76,29.89,6.2,NNW,5.8,-,N/A,,Scattered Clouds,330,2012-11-29 13:50:00
2:50 PM,39.2,33.8,81,29.89,6.2,NW,5.8,-,N/A,,Mostly Cloudy,320,2012-11-29 14:50:00
3:50 PM,37.4,32.0,81,29.86,6.2,WNW,2.3,-,N/A,,Scattered Clouds,290,2012-11-29 15:50:00
4:50 PM,33.8,30.2,87,29.86,6.2,WNW,5.8,-,N/A,,Scattered Clouds,290,2012-11-29 16:50:00
5:50 PM,33,29,82,29.88,31,WNW,4.6,,,,Scattered Clouds,300,2012-11-29 17:50:00
5:50 PM,32.0,30.2,93,29.86,6.2,WNW,4.6,-,N/A,,Mostly Cloudy,300,2012-11-29 17:50:00
6:50 PM,30.2,28.4,93,29.86,6.2,West,6.9,-,N/A,,Partly Cloudy,270,2012-11-29 18:50:00
7:50 PM,30.2,28.4,93,29.86,-9999.0,West,6.9,-,N/A,,Clear,280,2012-11-29 19:50:00
8:50 PM,30,28,87,29.86,31,NNW,3.5,,,,Scattered Clouds,330,2012-11-29 20:50:00
8:50 PM,30.2,28.4,93,29.83,6.2,NNW,3.5,-,N/A,,Partly Cloudy,330,2012-11-29 20:50:00
9:50 PM,28.4,26.6,93,29.83,-9999.0,West,3.5,-,N/A,,Clear,280,2012-11-29 21:50:00
10:50 PM,28.4,24.8,86,29.83,-9999.0,WNW,4.6,-,N/A,,Clear,300,2012-11-29 22:50:00
11:50 PM,29,27,88,29.85,15,NNE,2.3,,,,Overcast,20,2012-11-29 23:50:00
11:50 PM,30.2,26.6,86,29.83,6.2,NNE,2.3,-,N/A,,Overcast,20,2012-11-29 23:50:00